This demonstration page uses our WeatherBlox Daily Observations layout. Learn more.

Left ArrowRight Arrow

39.08367, -84.50855

Hourly Observations for January 11, 2020

Temp ( °F °C ) Dew Point ( °F °C ) Humidity (%) Winds ( mph kmh ) Pressure ( in mb ) Visibility ( mi km ) Precip ( " mm )
12:53 am 00:53 Mostly Cloudy 57 13.9 52 11.1 83 83 S 10 17 29.99 1016 10 16 0.00 0.00
1:53 am 01:53 Cloudy 57 13.9 52 11.1 83 83 S 8 13 29.96 1015 10 16 0.00 0.00
2:53 am 02:53 Mostly Cloudy 58 14.4 52 11.1 81 81 S 8 13 29.92 1013 10 16 0.00 0.00
3:53 am 03:53 Partly Cloudy 59 15 52 11.1 78 78 S 9 15 29.90 1013 10 16 0.00 0.00
4:53 am 04:53 Cloudy with Rain 60 15.6 54 12.2 80 80 S 12 19 29.88 1012 6 10 0.02 0.51
5:53 am 05:53 Cloudy 59 15 55 12.8 87 87 S 10 17 29.85 1011 10 16 0.06 1.52
6:53 am 06:53 Cloudy 62 16.7 54 12.2 75 75 S 17 28 29.83 1010 10 16 0.00 0.00
7:53 am 07:53 Cloudy 63 17.2 54 12.2 73 73 S 14 22 29.81 1009 10 16 0.00 0.00
8:53 am 08:53 Partly Cloudy 64 17.8 54 12.2 70 70 S 14 22 29.78 1008 10 16 0.00 0.00
9:53 am 09:53 Cloudy 65 18.3 55 12.8 70 70 S 16 26 29.77 1008 10 16 0.00 0.00
10:53 am 10:53 Cloudy 67 19.4 56 13.3 68 68 S 16 26 29.76 1008 10 16 0.00 0.00
11:53 am 11:53 Cloudy with Light Rain 67 19.4 59 15 76 76 S 14 22 29.72 1006 7 11 0.02 0.51
12:23 pm 12:23 Cloudy with Heavy Rain 66 18.9 61 16.1 84 84 SW 26 43 29.75 1007 2 2 0.09 2.29
12:53 pm 12:53 Cloudy with Light Rain 65 18.3 61 16.1 87 87 SSW 20 31 29.75 1007 7 11 0.14 3.56
1:53 pm 13:53 Cloudy with Light Rain 63 17.2 60 15.6 90 90 SSW 13 20 29.74 1007 7 11 0.03 0.76
2:53 pm 14:53 Cloudy with Light Rain 62 16.7 59 15 90 90 SSW 12 19 29.72 1007 7 11 0.03 0.76
3:53 pm 15:53 Cloudy 62 16.7 59 15 90 90 S 12 19 29.74 1007 10 16 0.01 0.25
4:53 pm 16:53 Cloudy with Rain 61 16.1 59 15 93 93 S 15 24 29.74 1007 7 11 0.04 1.02
5:53 pm 17:53 Cloudy with Rain 61 16.1 60 15.6 97 97 SE 16 26 29.68 1005 6 10 0.17 4.32
6:33 pm 18:33 Mostly Cloudy 61 16.1 59 15 93 93 SSE 12 19 29.64 1004 10 16 0.03 0.76
6:43 pm 18:43 Mostly Cloudy 61 16.1 59 15 93 93 SSE 13 20 29.65 1004 10 16 0.03 0.76
6:53 pm 18:53 Mostly Cloudy 61 16.1 59 15 93 93 S 7 11 29.64 1004 10 16 0.03 0.76
7:53 pm 19:53 Cloudy with Light Rain 61 16.1 61 16.1 100 100 S 12 19 29.63 1003 7 11 0.00 0.00
8:53 pm 20:53 Cloudy 60 15.6 59 15 96 96 SSW 13 20 29.61 1003 10 16 0.00 0.00
9:51 pm 21:51 Cloudy with Light Rain 57 14 55 13 94 94 W 24 39 29.68 1005 3 4 0.09 2.29
9:52 pm 21:52 Cloudy with Light Rain 57 13.9 55 12.8 93 93 W 21 33 29.68 1005 3 4 0.09 2.29
9:59 pm 21:59 Cloudy with Light Rain 56 13.3 54 12.2 93 93 WSW 18 30 29.70 1006 10 16 0.00 0.00
10:53 pm 22:53 Mostly Cloudy 53 11.7 50 10 89 89 WSW 16 26 29.72 1007 7 11 0.00 0.00
11:02 pm 23:02 Mostly Cloudy 53 11.7 50 10 89 89 WSW 17 28 29.76 1008 10 16 0.00 0.00
11:38 pm 23:38 Cloudy with Light Rain 50 10 49 9.4 96 96 WSW 25 41 29.84 1010 6 10 0.01 0.25
11:53 pm 23:53 Cloudy 49 9.4 46 7.8 90 90 WSW 29 46 29.86 1011 10 16 0.01 0.25

Powered by AerisWeather